Mount Pleasant, IA

10:41 AM CDT on April 20, 2018 (GMT -0500)
Mount Pleasant Municipal

Weather History for KMPZ - October, 2014

Change the Weather History Date:

Tuesday, October 28, 2014

  Actual Average Record
Temperature  
Mean Temperature 50 °F -  
Max Temperature 58 °F 61 °F 82 °F (1950)
Min Temperature 41 °F 38 °F 20 °F (1969)
Degree Days  
Heating Degree Days 15    
Moisture  
Dew Point 36 °F    
Average Humidity 55    
Maximum Humidity 72    
Minimum Humidity 37    
Precipitation  
Precipitation 0.00 in - - ()
Sea Level Pressure  
Sea Level Pressure 29.96 in    
Wind  
Wind Speed 13 mph (WNW)    
Max Wind Speed 21 mph    
Max Gust Speed 28 mph    
Visibility 10 miles    
Events      
Averages and records for this station are not official NWS values.
T = Trace of Precipitation, MM = Missing Value Source: NWS Daily Summary

Daily Weather History Graph

Daily Weather History Graph

Search for Another Location

Airport or City:

Astronomy

Oct. 28, 2014 Rise Set
Actual Time 7:32 AM CDT 6:06 PM CDT
Civil Twilight 7:03 AM CDT 6:35 PM CDT
Nautical Twilight 6:31 AM CDT 7:07 PM CDT
Astronomical Twilight 5:59 AM CDT 7:39 PM CDT
Moon 12:02 PM CDT (10/28) 10:12 PM CDT (10/28)
Length of Visible Light 11h 31m
Length of Day
10h 34m
Waxing Crescent, 24% of the Moon is Illuminated
Oct 28
Waxing Crescent
Oct 30
First Quarter
Nov 6
Full
Nov 14
Last Quarter
Nov 22
New

Hourly Weather History & Observations

Time (CDT) Temp. Windchill Dew Point Humidity Pressure Visibility Wind Dir Wind Speed Gust Speed Precip Events Conditions
12:15 AM 59.0 °F - 47.3 °F 65% 29.77 in 10.0 mi WNW 12.7 mph - N/A   Clear
12:35 AM 58.1 °F - 46.8 °F 66% 29.78 in 10.0 mi WNW 12.7 mph 18.4 mph N/A   Clear
12:55 AM 57.2 °F - 46.9 °F 69% 29.80 in 10.0 mi WNW 12.7 mph 23.0 mph N/A   Clear
1:15 AM 56.5 °F - 44.8 °F 65% 29.81 in 10.0 mi WNW 18.4 mph 27.6 mph N/A   Clear
1:35 AM 55.6 °F - 44.2 °F 66% 29.83 in 10.0 mi NW 16.1 mph 27.6 mph N/A   Clear
1:55 AM 55.0 °F - 43.0 °F 64% 29.84 in 10.0 mi WNW 19.6 mph 27.6 mph N/A   Scattered Clouds
2:15 AM 54.5 °F - 41.9 °F 62% 29.85 in 10.0 mi NW 12.7 mph 27.6 mph N/A   Clear
2:35 AM 53.8 °F - 41.0 °F 62% 29.85 in 10.0 mi WNW 13.8 mph 23.0 mph N/A   Clear
2:55 AM 53.6 °F - 40.5 °F 61% 29.85 in 10.0 mi WNW 15.0 mph 18.4 mph N/A   Clear
3:15 AM 52.9 °F - 39.7 °F 61% 29.85 in 10.0 mi WNW 11.5 mph 17.3 mph N/A   Clear
3:35 AM 52.7 °F - 40.1 °F 62% 29.85 in 10.0 mi WNW 10.4 mph 19.6 mph N/A   Clear
3:55 AM 52.3 °F - 41.2 °F 66% 29.86 in 10.0 mi WNW 10.4 mph 19.6 mph N/A   Scattered Clouds
4:15 AM 52.3 °F - 41.4 °F 66% 29.87 in 10.0 mi West 8.1 mph - N/A   Mostly Cloudy
4:35 AM 52.2 °F - 41.2 °F 66% 29.87 in 10.0 mi WSW 4.6 mph - N/A   Overcast
4:55 AM 52.3 °F - 41.2 °F 66% 29.89 in 10.0 mi West 15.0 mph 20.7 mph N/A   Overcast
5:15 AM 52.2 °F - 41.4 °F 67% 29.89 in 10.0 mi West 8.1 mph - N/A   Mostly Cloudy
5:35 AM 52.3 °F - 40.3 °F 64% 29.90 in 10.0 mi West 12.7 mph 16.1 mph N/A   Scattered Clouds
5:55 AM 52.2 °F - 39.6 °F 62% 29.90 in 10.0 mi West 10.4 mph 18.4 mph N/A   Scattered Clouds
6:15 AM 51.8 °F - 39.2 °F 62% 29.92 in 10.0 mi West 18.4 mph 24.2 mph N/A   Clear
6:35 AM 51.1 °F - 38.8 °F 63% 29.93 in 10.0 mi West 10.4 mph 21.9 mph N/A   Clear
6:55 AM 50.2 °F - 38.5 °F 64% 29.93 in 10.0 mi West 12.7 mph 18.4 mph N/A   Clear
7:15 AM 48.9 °F - 37.6 °F 65% 29.93 in 10.0 mi West 9.2 mph - N/A   Clear
7:35 AM 48.2 °F - 36.5 °F 64% 29.93 in 10.0 mi West 9.2 mph - N/A   Clear
7:55 AM 47.7 °F - 36.9 °F 66% 29.93 in 10.0 mi West 8.1 mph - N/A   Clear
8:15 AM 48.2 °F - 37.0 °F 65% 29.93 in 10.0 mi West 8.1 mph - N/A   Clear
8:35 AM 48.7 °F - 36.3 °F 62% 29.93 in 10.0 mi West 8.1 mph - N/A   Clear
8:55 AM 49.8 °F - 36.3 °F 60% 29.95 in 10.0 mi WSW 10.4 mph - N/A   Clear
9:15 AM 50.9 °F - 35.2 °F 55% 29.95 in 10.0 mi West 13.8 mph 19.6 mph N/A   Clear
9:35 AM 51.4 °F - 34.5 °F 52% 29.96 in 10.0 mi West 13.8 mph 20.7 mph N/A   Clear
9:55 AM 51.8 °F - 33.1 °F 49% 29.97 in 10.0 mi West 20.7 mph 27.6 mph N/A   Clear
10:15 AM 51.8 °F - 32.7 °F 48% 29.98 in 10.0 mi WNW 17.3 mph 24.2 mph N/A   Clear
10:35 AM 52.3 °F - 32.9 °F 48% 29.99 in 10.0 mi West 18.4 mph 24.2 mph N/A   Clear
10:55 AM 52.7 °F - 33.6 °F 48% 29.99 in 10.0 mi WNW 15.0 mph 25.3 mph N/A   Clear
11:15 AM 53.1 °F - 32.7 °F 46% 29.99 in 10.0 mi West 19.6 mph 26.5 mph N/A   Clear
11:35 AM 54.1 °F - 33.1 °F 45% 30.00 in 10.0 mi West 18.4 mph 24.2 mph N/A   Clear
11:55 AM 54.9 °F - 32.7 °F 43% 30.00 in 10.0 mi West 16.1 mph 23.0 mph N/A   Clear
12:15 PM 55.6 °F - 32.0 °F 41% 30.00 in 10.0 mi West 13.8 mph 25.3 mph N/A   Clear
12:35 PM 55.6 °F - 31.8 °F 41% 29.99 in 10.0 mi West 17.3 mph 26.5 mph N/A   Clear
12:55 PM 55.9 °F - 31.8 °F 40% 29.99 in 10.0 mi West 17.3 mph 27.6 mph N/A   Clear
1:15 PM 56.1 °F - 31.3 °F 39% 29.98 in 10.0 mi West 17.3 mph 26.5 mph N/A   Clear
1:35 PM 57.4 °F - 31.8 °F 38% 29.98 in 10.0 mi West 15.0 mph 23.0 mph N/A   Clear
1:55 PM 57.4 °F - 32.2 °F 39% 29.98 in 10.0 mi WNW 19.6 mph 26.5 mph N/A   Clear
2:15 PM 56.8 °F - 32.0 °F 39% 29.98 in 10.0 mi West 19.6 mph 25.3 mph N/A   Clear
2:35 PM 57.7 °F - 31.8 °F 37% 29.98 in 10.0 mi West 15.0 mph 23.0 mph N/A   Clear
2:55 PM 57.4 °F - 31.8 °F 38% 29.98 in 10.0 mi West 19.6 mph 24.2 mph N/A   Clear
3:15 PM 56.3 °F - 31.6 °F 39% 29.98 in 10.0 mi West 13.8 mph 21.9 mph N/A   Clear
3:35 PM 56.3 °F - 31.8 °F 39% 29.98 in 10.0 mi West 16.1 mph 24.2 mph N/A   Clear
3:55 PM 56.7 °F - 32.4 °F 40% 29.99 in 10.0 mi WNW 12.7 mph 21.9 mph N/A   Clear
4:15 PM 57.6 °F - 32.4 °F 39% 30.00 in 10.0 mi West 12.7 mph 24.2 mph N/A   Scattered Clouds
4:35 PM 57.6 °F - 32.7 °F 39% 30.00 in 10.0 mi WNW 15.0 mph 23.0 mph N/A   Mostly Cloudy
4:55 PM 55.9 °F - 32.0 °F 40% 30.01 in 10.0 mi WNW 17.3 mph 23.0 mph N/A   Scattered Clouds
5:15 PM 55.4 °F - 32.4 °F 42% 30.02 in 10.0 mi WNW 13.8 mph 19.6 mph N/A   Mostly Cloudy
5:35 PM 54.5 °F - 32.4 °F 43% 30.03 in 10.0 mi WNW 10.4 mph 19.6 mph N/A   Mostly Cloudy
5:55 PM 53.2 °F - 32.5 °F 45% 30.03 in 10.0 mi WNW 9.2 mph 18.4 mph N/A   Scattered Clouds
6:15 PM 51.8 °F - 32.9 °F 49% 30.04 in 10.0 mi WNW 10.4 mph - N/A   Clear
6:35 PM 51.3 °F - 33.1 °F 50% 30.04 in 10.0 mi WNW 6.9 mph - N/A   Clear
6:55 PM 50.2 °F - 33.1 °F 52% 30.05 in 10.0 mi West 6.9 mph - N/A   Clear
7:15 PM 49.1 °F - 33.3 °F 54% 30.06 in 10.0 mi WNW 6.9 mph - N/A   Clear
7:35 PM 48.2 °F - 33.8 °F 58% 30.06 in 10.0 mi West 5.8 mph - N/A   Clear
7:55 PM 47.5 °F - 33.8 °F 59% 30.07 in 10.0 mi WNW 5.8 mph - N/A   Clear
8:15 PM 47.5 °F - 33.6 °F 59% 30.07 in 10.0 mi WNW 6.9 mph - N/A   Clear
8:35 PM 47.7 °F - 33.4 °F 58% 30.07 in 10.0 mi NW 5.8 mph - N/A   Clear
8:55 PM 46.4 °F 42.9 °F 33.4 °F 61% 30.07 in 10.0 mi NW 6.9 mph - N/A   Clear
9:15 PM 45.7 °F 41.5 °F 33.4 °F 62% 30.07 in 10.0 mi NW 8.1 mph - N/A   Clear
9:35 PM 45.5 °F 41.3 °F 33.3 °F 62% 30.08 in 10.0 mi WNW 8.1 mph - N/A   Clear
9:55 PM 44.6 °F 40.7 °F 33.1 °F 64% 30.08 in 10.0 mi WNW 6.9 mph - N/A   Clear
10:15 PM 44.1 °F 40.8 °F 33.3 °F 66% 30.08 in 10.0 mi West 5.8 mph - N/A   Clear
10:35 PM 43.9 °F 39.9 °F 33.3 °F 66% 30.08 in 10.0 mi West 6.9 mph - N/A   Clear
10:55 PM 43.3 °F 39.2 °F 33.1 °F 67% 30.09 in 10.0 mi West 6.9 mph - N/A   Clear
11:15 PM 42.8 °F 38.6 °F 32.9 °F 68% 30.08 in 10.0 mi West 6.9 mph - N/A   Clear
11:35 PM 41.4 °F 37.6 °F 32.9 °F 72% 30.08 in 10.0 mi West 5.8 mph - N/A   Clear
11:55 PM 41.9 °F 37.5 °F 32.9 °F 70% 30.08 in 10.0 mi West 6.9 mph - N/A   Clear